﻿測定場所 (Monitoring sites),日付 (Measurement date),時間 (Measurement time),線量率 最大値 (max) μGy/h,線量率 最小値 (min) μGy/h,線量率 平均値 (average) μGy/h,
八王子 (Hachioji),2022-02-13,23:01～24:00,0.0531,0.0441,0.0475,
八王子 (Hachioji),2022-02-13,22:01～23:00,0.0502,0.0407,0.0447,
八王子 (Hachioji),2022-02-13,21:01～22:00,0.0471,0.0405,0.0440,
八王子 (Hachioji),2022-02-13,20:01～21:00,0.0445,0.0359,0.0396,
八王子 (Hachioji),2022-02-13,19:01～20:00,0.0393,0.0349,0.0367,
八王子 (Hachioji),2022-02-13,18:01～19:00,0.0372,0.0337,0.0359,
八王子 (Hachioji),2022-02-13,17:01～18:00,0.0404,0.0347,0.0373,
八王子 (Hachioji),2022-02-13,16:01～17:00,0.0418,0.0350,0.0373,
八王子 (Hachioji),2022-02-13,15:01～16:00,0.0391,0.0340,0.0361,
八王子 (Hachioji),2022-02-13,14:01～15:00,0.0380,0.0324,0.0350,
八王子 (Hachioji),2022-02-13,13:01～14:00,0.0396,0.0324,0.0354,
八王子 (Hachioji),2022-02-13,12:01～13:00,0.0374,0.0340,0.0361,
八王子 (Hachioji),2022-02-13,11:01～12:00,0.0384,0.0316,0.0347,
八王子 (Hachioji),2022-02-13,10:01～11:00,0.0348,0.0305,0.0327,
八王子 (Hachioji),2022-02-13,09:01～10:00,0.0340,0.0303,0.0321,
八王子 (Hachioji),2022-02-13,08:01～09:00,0.0335,0.0303,0.0320,
八王子 (Hachioji),2022-02-13,07:01～08:00,0.0343,0.0299,0.0317,
八王子 (Hachioji),2022-02-13,06:01～07:00,0.0332,0.0290,0.0314,
八王子 (Hachioji),2022-02-13,05:01～06:00,0.0333,0.0284,0.0308,
八王子 (Hachioji),2022-02-13,04:01～05:00,0.0329,0.0283,0.0310,
八王子 (Hachioji),2022-02-13,03:01～04:00,0.0328,0.0295,0.0310,
八王子 (Hachioji),2022-02-13,02:01～03:00,0.0329,0.0286,0.0308,
八王子 (Hachioji),2022-02-13,01:01～02:00,0.0327,0.0286,0.0305,
八王子 (Hachioji),2022-02-13,00:01～01:00,0.0327,0.0288,0.0307,
八王子 (Hachioji),2022-02-12,23:01～24:00,0.0329,0.0276,0.0305,
八王子 (Hachioji),2022-02-12,22:01～23:00,0.0329,0.0284,0.0303,
八王子 (Hachioji),2022-02-12,21:01～22:00,0.0324,0.0280,0.0299,
八王子 (Hachioji),2022-02-12,20:01～21:00,0.0316,0.0272,0.0296,
八王子 (Hachioji),2022-02-12,19:01～20:00,0.0314,0.0274,0.0297,
八王子 (Hachioji),2022-02-12,18:01～19:00,0.0314,0.0272,0.0294,
八王子 (Hachioji),2022-02-12,17:01～18:00,0.0318,0.0280,0.0297,
八王子 (Hachioji),2022-02-12,16:01～17:00,0.0316,0.0267,0.0297,
八王子 (Hachioji),2022-02-12,15:01～16:00,0.0316,0.0278,0.0297,
八王子 (Hachioji),2022-02-12,14:01～15:00,0.0315,0.0270,0.0300,
八王子 (Hachioji),2022-02-12,13:01～14:00,0.0320,0.0281,0.0301,
八王子 (Hachioji),2022-02-12,12:01～13:00,0.0325,0.0284,0.0301,
八王子 (Hachioji),2022-02-12,11:01～12:00,0.0323,0.0283,0.0300,
八王子 (Hachioji),2022-02-12,10:01～11:00,0.0325,0.0280,0.0300,
八王子 (Hachioji),2022-02-12,09:01～10:00,0.0321,0.0282,0.0301,
八王子 (Hachioji),2022-02-12,08:01～09:00,0.0322,0.0286,0.0306,
八王子 (Hachioji),2022-02-12,07:01～08:00,0.0331,0.0290,0.0308,
八王子 (Hachioji),2022-02-12,06:01～07:00,0.0339,0.0291,0.0309,
八王子 (Hachioji),2022-02-12,05:01～06:00,0.0327,0.0281,0.0306,
八王子 (Hachioji),2022-02-12,04:01～05:00,0.0318,0.0282,0.0300,
八王子 (Hachioji),2022-02-12,03:01～04:00,0.0319,0.0280,0.0303,
八王子 (Hachioji),2022-02-12,02:01～03:00,0.0332,0.0286,0.0304,
八王子 (Hachioji),2022-02-12,01:01～02:00,0.0327,0.0282,0.0304,
八王子 (Hachioji),2022-02-12,00:01～01:00,0.0320,0.0282,0.0299,
八王子 (Hachioji),2022-02-11,23:01～24:00,0.0322,0.0287,0.0302,
八王子 (Hachioji),2022-02-11,22:01～23:00,0.0318,0.0278,0.0299,
八王子 (Hachioji),2022-02-11,21:01～22:00,0.0314,0.0275,0.0296,
八王子 (Hachioji),2022-02-11,20:01～21:00,0.0329,0.0275,0.0299,
八王子 (Hachioji),2022-02-11,19:01～20:00,0.0324,0.0281,0.0298,
八王子 (Hachioji),2022-02-11,18:01～19:00,0.0308,0.0270,0.0293,
八王子 (Hachioji),2022-02-11,17:01～18:00,0.0325,0.0279,0.0297,
八王子 (Hachioji),2022-02-11,16:01～17:00,0.0321,0.0280,0.0296,
八王子 (Hachioji),2022-02-11,15:01～16:00,0.0313,0.0273,0.0293,
八王子 (Hachioji),2022-02-11,14:01～15:00,0.0313,0.0271,0.0295,
八王子 (Hachioji),2022-02-11,13:01～14:00,0.0315,0.0277,0.0296,
八王子 (Hachioji),2022-02-11,12:01～13:00,0.0316,0.0278,0.0298,
八王子 (Hachioji),2022-02-11,11:01～12:00,0.0314,0.0280,0.0296,
八王子 (Hachioji),2022-02-11,10:01～11:00,0.0315,0.0276,0.0296,
八王子 (Hachioji),2022-02-11,09:01～10:00,0.0308,0.0275,0.0293,
八王子 (Hachioji),2022-02-11,08:01～09:00,0.0311,0.0276,0.0293,
八王子 (Hachioji),2022-02-11,07:01～08:00,0.0317,0.0270,0.0294,
八王子 (Hachioji),2022-02-11,06:01～07:00,0.0318,0.0274,0.0293,
八王子 (Hachioji),2022-02-11,05:01～06:00,0.0308,0.0272,0.0293,
八王子 (Hachioji),2022-02-11,04:01～05:00,0.0311,0.0279,0.0293,
八王子 (Hachioji),2022-02-11,03:01～04:00,0.0321,0.0277,0.0299,
八王子 (Hachioji),2022-02-11,02:01～03:00,0.0327,0.0284,0.0308,
八王子 (Hachioji),2022-02-11,01:01～02:00,0.0354,0.0305,0.0324,
八王子 (Hachioji),2022-02-11,00:01～01:00,0.0364,0.0316,0.0337,
八王子 (Hachioji),2022-02-10,23:01～24:00,0.0411,0.0347,0.0368,
八王子 (Hachioji),2022-02-10,22:01～23:00,0.0392,0.0333,0.0362,
八王子 (Hachioji),2022-02-10,21:01～22:00,0.0406,0.0347,0.0374,
八王子 (Hachioji),2022-02-10,20:01～21:00,0.0382,0.0332,0.0353,
八王子 (Hachioji),2022-02-10,19:01～20:00,0.0375,0.0332,0.0355,
八王子 (Hachioji),2022-02-10,18:01～19:00,0.0397,0.0346,0.0366,
八王子 (Hachioji),2022-02-10,17:01～18:00,0.0418,0.0353,0.0376,
八王子 (Hachioji),2022-02-10,16:01～17:00,0.0405,0.0339,0.0364,
八王子 (Hachioji),2022-02-10,15:01～16:00,0.0375,0.0328,0.0354,
八王子 (Hachioji),2022-02-10,14:01～15:00,0.0423,0.0345,0.0378,
八王子 (Hachioji),2022-02-10,13:01～14:00,0.0440,0.0361,0.0390,
八王子 (Hachioji),2022-02-10,12:01～13:00,0.0414,0.0354,0.0375,
八王子 (Hachioji),2022-02-10,11:01～12:00,0.0385,0.0337,0.0357,
八王子 (Hachioji),2022-02-10,10:01～11:00,0.0373,0.0335,0.0353,
八王子 (Hachioji),2022-02-10,09:01～10:00,0.0382,0.0337,0.0360,
八王子 (Hachioji),2022-02-10,08:01～09:00,0.0390,0.0344,0.0358,
八王子 (Hachioji),2022-02-10,07:01～08:00,0.0381,0.0340,0.0356,
八王子 (Hachioji),2022-02-10,06:01～07:00,0.0390,0.0337,0.0359,
八王子 (Hachioji),2022-02-10,05:01～06:00,0.0380,0.0325,0.0353,
八王子 (Hachioji),2022-02-10,04:01～05:00,0.0360,0.0299,0.0327,
八王子 (Hachioji),2022-02-10,03:01～04:00,0.0340,0.0304,0.0320,
八王子 (Hachioji),2022-02-10,02:01～03:00,0.0351,0.0305,0.0321,
八王子 (Hachioji),2022-02-10,01:01～02:00,0.0334,0.0297,0.0313,
八王子 (Hachioji),2022-02-10,00:01～01:00,0.0335,0.0292,0.0315,
八王子 (Hachioji),2022-02-09,23:01～24:00,0.0337,0.0293,0.0314,
八王子 (Hachioji),2022-02-09,22:01～23:00,0.0328,0.0283,0.0309,
八王子 (Hachioji),2022-02-09,21:01～22:00,0.0331,0.0278,0.0305,
八王子 (Hachioji),2022-02-09,20:01～21:00,0.0326,0.0283,0.0304,
八王子 (Hachioji),2022-02-09,19:01～20:00,0.0325,0.0282,0.0307,
八王子 (Hachioji),2022-02-09,18:01～19:00,0.0331,0.0286,0.0307,
八王子 (Hachioji),2022-02-09,17:01～18:00,0.0327,0.0276,0.0308,
八王子 (Hachioji),2022-02-09,16:01～17:00,0.0328,0.0289,0.0308,
八王子 (Hachioji),2022-02-09,15:01～16:00,0.0329,0.0288,0.0311,
八王子 (Hachioji),2022-02-09,14:01～15:00,0.0332,0.0290,0.0309,
八王子 (Hachioji),2022-02-09,13:01～14:00,0.0332,0.0287,0.0312,
八王子 (Hachioji),2022-02-09,12:01～13:00,0.0333,0.0289,0.0310,
八王子 (Hachioji),2022-02-09,11:01～12:00,0.0334,0.0286,0.0311,
八王子 (Hachioji),2022-02-09,10:01～11:00,0.0331,0.0290,0.0312,
八王子 (Hachioji),2022-02-09,09:01～10:00,0.0324,0.0290,0.0308,
八王子 (Hachioji),2022-02-09,08:01～09:00,0.0336,0.0296,0.0311,
八王子 (Hachioji),2022-02-09,07:01～08:00,0.0334,0.0290,0.0310,
八王子 (Hachioji),2022-02-09,06:01～07:00,0.0343,0.0291,0.0318,
八王子 (Hachioji),2022-02-09,05:01～06:00,0.0354,0.0307,0.0325,
八王子 (Hachioji),2022-02-09,04:01～05:00,0.0348,0.0310,0.0328,
八王子 (Hachioji),2022-02-09,03:01～04:00,0.0348,0.0305,0.0325,
八王子 (Hachioji),2022-02-09,02:01～03:00,0.0353,0.0304,0.0324,
八王子 (Hachioji),2022-02-09,01:01～02:00,0.0341,0.0301,0.0317,
八王子 (Hachioji),2022-02-09,00:01～01:00,0.0334,0.0295,0.0314,
八王子 (Hachioji),2022-02-08,23:01～24:00,0.0338,0.0298,0.0314,
八王子 (Hachioji),2022-02-08,22:01～23:00,0.0341,0.0292,0.0314,
八王子 (Hachioji),2022-02-08,21:01～22:00,0.0343,0.0295,0.0316,
八王子 (Hachioji),2022-02-08,20:01～21:00,0.0339,0.0290,0.0318,
八王子 (Hachioji),2022-02-08,19:01～20:00,0.0331,0.0296,0.0312,
八王子 (Hachioji),2022-02-08,18:01～19:00,0.0328,0.0290,0.0306,
八王子 (Hachioji),2022-02-08,17:01～18:00,0.0333,0.0291,0.0309,
八王子 (Hachioji),2022-02-08,16:01～17:00,0.0327,0.0293,0.0311,
八王子 (Hachioji),2022-02-08,15:01～16:00,0.0334,0.0289,0.0311,
八王子 (Hachioji),2022-02-08,14:01～15:00,0.0336,0.0288,0.0310,
八王子 (Hachioji),2022-02-08,13:01～14:00,0.0332,0.0294,0.0313,
八王子 (Hachioji),2022-02-08,12:01～13:00,0.0332,0.0295,0.0312,
八王子 (Hachioji),2022-02-08,11:01～12:00,0.0341,0.0295,0.0315,
八王子 (Hachioji),2022-02-08,10:01～11:00,0.0336,0.0293,0.0316,
八王子 (Hachioji),2022-02-08,09:01～10:00,0.0337,0.0292,0.0315,
八王子 (Hachioji),2022-02-08,08:01～09:00,0.0340,0.0290,0.0316,
八王子 (Hachioji),2022-02-08,07:01～08:00,0.0336,0.0296,0.0316,
八王子 (Hachioji),2022-02-08,06:01～07:00,0.0344,0.0291,0.0315,
八王子 (Hachioji),2022-02-08,05:01～06:00,0.0336,0.0302,0.0318,
八王子 (Hachioji),2022-02-08,04:01～05:00,0.0349,0.0295,0.0323,
八王子 (Hachioji),2022-02-08,03:01～04:00,0.0352,0.0305,0.0326,
八王子 (Hachioji),2022-02-08,02:01～03:00,0.0343,0.0296,0.0324,
八王子 (Hachioji),2022-02-08,01:01～02:00,0.0342,0.0301,0.0321,
八王子 (Hachioji),2022-02-08,00:01～01:00,0.0342,0.0295,0.0314,
八王子 (Hachioji),2022-02-07,23:01～24:00,0.0330,0.0281,0.0308,
八王子 (Hachioji),2022-02-07,22:01～23:00,0.0333,0.0289,0.0308,
八王子 (Hachioji),2022-02-07,21:01～22:00,0.0327,0.0290,0.0309,
八王子 (Hachioji),2022-02-07,20:01～21:00,0.0331,0.0289,0.0306,
八王子 (Hachioji),2022-02-07,19:01～20:00,0.0325,0.0284,0.0306,
八王子 (Hachioji),2022-02-07,18:01～19:00,0.0331,0.0293,0.0307,
八王子 (Hachioji),2022-02-07,17:01～18:00,0.0336,0.0289,0.0307,
八王子 (Hachioji),2022-02-07,16:01～17:00,0.0332,0.0293,0.0308,
八王子 (Hachioji),2022-02-07,15:01～16:00,0.0330,0.0286,0.0309,
八王子 (Hachioji),2022-02-07,14:01～15:00,0.0327,0.0285,0.0308,
八王子 (Hachioji),2022-02-07,13:01～14:00,0.0335,0.0293,0.0312,
八王子 (Hachioji),2022-02-07,12:01～13:00,0.0330,0.0295,0.0311,
八王子 (Hachioji),2022-02-07,11:01～12:00,0.0340,0.0298,0.0316,
八王子 (Hachioji),2022-02-07,10:01～11:00,0.0340,0.0290,0.0318,
八王子 (Hachioji),2022-02-07,09:01～10:00,0.0352,0.0299,0.0324,
八王子 (Hachioji),2022-02-07,08:01～09:00,0.0340,0.0300,0.0325,
八王子 (Hachioji),2022-02-07,07:01～08:00,0.0355,0.0302,0.0325,
八王子 (Hachioji),2022-02-07,06:01～07:00,0.0357,0.0312,0.0331,
八王子 (Hachioji),2022-02-07,05:01～06:00,0.0354,0.0311,0.0330,
八王子 (Hachioji),2022-02-07,04:01～05:00,0.0352,0.0314,0.0331,
八王子 (Hachioji),2022-02-07,03:01～04:00,0.0355,0.0311,0.0330,
八王子 (Hachioji),2022-02-07,02:01～03:00,0.0352,0.0302,0.0326,
八王子 (Hachioji),2022-02-07,01:01～02:00,0.0342,0.0307,0.0323,
八王子 (Hachioji),2022-02-07,00:01～01:00,0.0342,0.0310,0.0323,
